SCOUT X-4 R/B, 933

Orbit data source: Space-Track

SCOUT X-4 R/B, 933 is space debris in LEO originally from a launch on Sat, 21 Nov 1964 UTC launched from the Air Force Western Test Range (AFWTR). Debris objects in space refer to the collection of defunct objects orbiting the Earth. Examples of debris include non-operational satellites, rocket bodies, and fragments generated from explosions, collisions, or faulty payload assembly.

Loading next visibility...
Identifier
933, 1964-076C
Orbit
LEO
Country
Flag of USUS
Related business
Manufacturer
ABL
Mission
Spacecraft
Bus & Motor
ALTAIR, Unknown motor
Mass
33 kg wet, 33 kg dry
Launch date (UTC)
1964-11-21 (61 years ago)
Launch vehicle
Unknown
Launch site
Air Force Western Test Range (AFWTR)
Object type
Payload
Rocket body
Debris
Shape & HBR
Unknown
Radar Cross Section
Medium (>0.1 m² and <1 m²)

Expand to show TLE details & history
Last TLE update: 15 hours ago

TLE from 15 hours ago
0 SCOUT X-4 R/B
1 00933U 64076C   26038.07597443  .00001088  00000-0  36526-3 0  9998
2 00933  81.3323 252.8236 1050737 297.8027  52.0428 12.82219348819901
Epoch: 2026-02-07T01:49Z
TLE epoch observation values (Epoch: 2026-02-07T01:49:24.190Z)
Latitude
-0.00003°
Longitude
88.26811°
Altitude
895.174 km
Speed
7.613 km/s
True Right ascension
16h 51m 17s
True Declination
0° 00' 00"
Sunlit
Object was in daylight at epoch
Visualization orbit readout
Latitude
Unknown
Longitude
Unknown
Altitude
Unknown
Speed
Unknown
Apparent Right ascension
Unknown
Apparent Declination
Unknown
Sunlit
N/A
Visualization observer readout
Local Sidereal Time
19:14:34
Azimuth
Unknown
Elevation
Unknown
Doppler factor
Unknown
Orbital elements
Apogee altitude
2,139.767 km
Perigee altitude
519.952 km
Semi-major axis
7,707.996 km
Eccentricity
0.10507
Inclination
81.3323°
RAAN
252.8236°
Arg. of periapsis
297.8027°
True anomaly
62.31175°
Mean anomaly
52.0428°
Eccentric anomaly
57.0974°
Mean motion
3.20724 °/min
Orbital period
112.25 mins
BSTAR
0.00036526
Loading maneuver chart data...
Computing Atmospheric mass density...
Loading historical data...
Loading historical data...
Loading historical data...
Loading historical data...
Loading historical data...
Loading historical data...
Loading historical data...

Documentation

Showing up to 5 results
|